Time,TemperatureF,DewpointF,PressureIn,WindDirection,WindDirectionDegrees,WindSpeedMPH,WindSpeedGustMPH,Humidity,HourlyPrecipIn,Conditions,Clouds,dailyrainin,SolarRadiationWatts/m^2,SoftwareType,DateUTC
2013-05-02 00:01:00,35.0,10.0,-100.00,SSW,202,2.0,4.0,35,0.00,,,0.00,0.000000,,2013-05-02 06:01:00,
2013-05-02 00:12:00,35.0,10.0,-100.00,SSW,202,2.0,4.0,35,0.00,,,0.00,0.000000,,2013-05-02 06:12:00,
2013-05-02 00:21:00,35.0,10.0,-100.00,SSW,202,2.0,4.0,35,0.00,,,0.00,0.000000,,2013-05-02 06:21:00,
2013-05-02 00:42:00,32.0,10.0,-100.00,SSW,202,3.0,6.0,40,0.00,,,0.00,0.000000,,2013-05-02 06:42:00,
2013-05-02 00:52:00,32.0,10.0,-100.00,SSW,202,3.0,6.0,40,0.00,,,0.00,0.000000,,2013-05-02 06:52:00,
2013-05-02 01:02:00,32.0,10.0,-100.00,SSW,202,3.0,6.0,40,0.00,,,0.00,0.000000,,2013-05-02 07:02:00,
2013-05-02 01:11:00,32.0,10.0,-100.00,SSW,202,3.0,6.0,40,0.00,,,0.00,0.000000,,2013-05-02 07:11:00,
2013-05-02 01:21:00,32.0,10.0,-100.00,SSW,202,3.0,6.0,40,0.00,,,0.00,0.000000,,2013-05-02 07:21:00,
2013-05-02 01:52:00,34.0,12.0,-100.00,South,174,3.0,7.0,40,0.00,,,0.00,0.000000,,2013-05-02 07:52:00,
2013-05-02 02:02:00,34.0,12.0,-100.00,South,174,3.0,7.0,40,0.00,,,0.00,0.000000,,2013-05-02 08:02:00,
2013-05-02 02:11:00,34.0,12.0,-100.00,South,174,3.0,7.0,40,0.00,,,0.00,0.000000,,2013-05-02 08:11:00,
2013-05-02 02:22:00,34.0,12.0,-100.00,South,174,3.0,7.0,40,0.00,,,0.00,0.000000,,2013-05-02 08:22:00,
2013-05-02 02:42:00,33.0,12.0,-100.00,SSW,194,2.0,7.0,42,0.00,,,0.00,0.000000,,2013-05-02 08:42:00,
2013-05-02 02:52:00,33.0,12.0,-100.00,SSW,194,2.0,7.0,42,0.00,,,0.00,0.000000,,2013-05-02 08:52:00,
2013-05-02 03:02:00,33.0,12.0,-100.00,SSW,194,2.0,7.0,42,0.00,,,0.00,0.000000,,2013-05-02 09:02:00,
2013-05-02 03:12:00,33.0,12.0,-100.00,SSW,194,2.0,7.0,42,0.00,,,0.00,0.000000,,2013-05-02 09:12:00,
2013-05-02 03:21:00,33.0,12.0,-100.00,SSW,194,2.0,7.0,42,0.00,,,0.00,0.000000,,2013-05-02 09:21:00,
2013-05-02 03:52:00,34.0,12.0,-100.00,South,174,5.0,10.0,39,0.00,,,0.00,0.000000,,2013-05-02 09:52:00,
2013-05-02 04:03:00,34.0,12.0,-100.00,South,174,5.0,10.0,39,0.00,,,0.00,0.000000,,2013-05-02 10:03:00,
2013-05-02 04:12:00,34.0,12.0,-100.00,South,174,5.0,10.0,39,0.00,,,0.00,0.000000,,2013-05-02 10:12:00,
2013-05-02 04:22:00,34.0,12.0,-100.00,South,174,5.0,10.0,39,0.00,,,0.00,0.000000,,2013-05-02 10:22:00,
2013-05-02 04:53:00,33.0,12.0,-100.00,South,184,5.0,12.0,41,0.00,,,0.00,0.000000,,2013-05-02 10:53:00,
2013-05-02 05:02:00,33.0,12.0,-100.00,South,184,5.0,12.0,41,0.00,,,0.00,0.000000,,2013-05-02 11:02:00,
2013-05-02 05:12:00,33.0,12.0,-100.00,South,184,5.0,12.0,41,0.00,,,0.00,0.000000,,2013-05-02 11:12:00,
2013-05-02 05:22:00,33.0,12.0,-100.00,South,184,5.0,12.0,41,0.00,,,0.00,0.000000,,2013-05-02 11:22:00,
2013-05-02 05:42:00,33.0,12.0,-100.00,South,181,4.0,9.0,42,0.00,,,0.00,0.000000,,2013-05-02 11:42:00,
2013-05-02 05:52:00,33.0,12.0,-100.00,South,181,4.0,9.0,42,0.00,,,0.00,0.000000,,2013-05-02 11:52:00,
2013-05-02 06:01:00,33.0,12.0,-100.00,South,181,4.0,9.0,42,0.00,,,0.00,0.000000,,2013-05-02 12:01:00,
2013-05-02 06:11:00,33.0,12.0,-100.00,South,181,4.0,9.0,42,0.00,,,0.00,0.000000,,2013-05-02 12:11:00,
2013-05-02 06:21:00,33.0,12.0,-100.00,South,181,4.0,9.0,42,0.00,,,0.00,0.000000,,2013-05-02 12:21:00,
2013-05-02 06:42:00,32.0,15.0,-100.00,South,189,2.0,7.0,48,0.00,,,0.00,12.000000,,2013-05-02 12:42:00,
2013-05-02 06:52:00,32.0,15.0,-100.00,South,189,2.0,7.0,48,0.00,,,0.00,12.000000,,2013-05-02 12:52:00,
2013-05-02 07:01:00,32.0,15.0,-100.00,South,189,2.0,7.0,48,0.00,,,0.00,12.000000,,2013-05-02 13:01:00,
2013-05-02 07:11:00,32.0,15.0,-100.00,South,189,2.0,7.0,48,0.00,,,0.00,12.000000,,2013-05-02 13:11:00,
2013-05-02 07:21:00,32.0,15.0,-100.00,South,189,2.0,7.0,48,0.00,,,0.00,12.000000,,2013-05-02 13:21:00,
2013-05-02 07:42:00,39.0,17.0,-100.00,SSE,165,4.0,6.0,40,0.00,,,0.00,165.000000,,2013-05-02 13:42:00,
2013-05-02 07:52:00,39.0,17.0,-100.00,SSE,165,4.0,6.0,40,0.00,,,0.00,165.000000,,2013-05-02 13:52:00,
2013-05-02 08:02:00,39.0,17.0,-100.00,SSE,165,4.0,6.0,40,0.00,,,0.00,165.000000,,2013-05-02 14:02:00,
2013-05-02 08:11:00,39.0,17.0,-100.00,SSE,165,4.0,6.0,40,0.00,,,0.00,165.000000,,2013-05-02 14:11:00,
2013-05-02 08:22:00,39.0,17.0,-100.00,SSE,165,4.0,6.0,40,0.00,,,0.00,165.000000,,2013-05-02 14:22:00,
2013-05-02 08:52:00,46.0,18.0,-100.00,SSW,197,4.0,8.0,32,0.00,,,0.00,405.000000,,2013-05-02 14:52:00,
2013-05-02 09:02:00,46.0,18.0,-100.00,SSW,197,4.0,8.0,32,0.00,,,0.00,405.000000,,2013-05-02 15:02:00,
2013-05-02 09:12:00,46.0,18.0,-100.00,SSW,197,4.0,8.0,32,0.00,,,0.00,405.000000,,2013-05-02 15:12:00,
2013-05-02 09:22:00,46.0,18.0,-100.00,SSW,197,4.0,8.0,32,0.00,,,0.00,405.000000,,2013-05-02 15:22:00,
2013-05-02 10:03:00,51.0,18.0,-100.00,WSW,255,3.0,10.0,27,0.00,,,0.00,618.000000,,2013-05-02 16:03:00,
2013-05-02 10:13:00,51.0,18.0,-100.00,WSW,255,3.0,10.0,27,0.00,,,0.00,618.000000,,2013-05-02 16:13:00,
2013-05-02 10:22:00,51.0,18.0,-100.00,WSW,255,3.0,10.0,27,0.00,,,0.00,618.000000,,2013-05-02 16:22:00,
2013-05-02 10:52:00,54.0,22.0,-100.00,NW,311,5.0,11.0,28,0.00,,,0.00,804.000000,,2013-05-02 16:52:00,
2013-05-02 11:02:00,54.0,22.0,-100.00,NW,311,5.0,11.0,28,0.00,,,0.00,804.000000,,2013-05-02 17:02:00,
2013-05-02 11:12:00,54.0,22.0,-100.00,NW,311,5.0,11.0,28,0.00,,,0.00,804.000000,,2013-05-02 17:12:00,
2013-05-02 11:22:00,54.0,22.0,-100.00,NW,311,5.0,11.0,28,0.00,,,0.00,804.000000,,2013-05-02 17:22:00,
2013-05-02 11:52:00,58.0,22.0,-100.00,NW,308,6.0,13.0,25,0.00,,,0.00,958.000000,,2013-05-02 17:52:00,
2013-05-02 12:01:00,58.0,22.0,-100.00,NW,308,6.0,13.0,25,0.00,,,0.00,958.000000,,2013-05-02 18:01:00,
2013-05-02 12:11:00,58.0,22.0,-100.00,NW,308,6.0,13.0,25,0.00,,,0.00,958.000000,,2013-05-02 18:11:00,
2013-05-02 12:21:00,58.0,22.0,-100.00,NW,308,6.0,13.0,25,0.00,,,0.00,958.000000,,2013-05-02 18:21:00,
2013-05-02 12:52:00,60.0,22.0,-100.00,South,183,3.0,13.0,23,0.00,,,-99.99,1057.000000,,2013-05-02 18:52:00,
2013-05-02 13:01:00,60.0,22.0,-100.00,South,183,3.0,13.0,23,0.00,,,-99.99,1057.000000,,2013-05-02 19:01:00,
2013-05-02 13:11:00,60.0,22.0,-100.00,South,183,3.0,13.0,23,0.00,,,-99.99,1057.000000,,2013-05-02 19:11:00,
2013-05-02 13:21:00,60.0,22.0,-100.00,South,183,3.0,13.0,23,0.00,,,-99.99,1057.000000,,2013-05-02 19:21:00,
2013-05-02 13:42:00,59.0,21.0,-100.00,North,352,5.0,14.0,23,0.00,,,0.00,1092.000000,,2013-05-02 19:42:00,
2013-05-02 13:52:00,59.0,21.0,-100.00,North,352,5.0,14.0,23,0.00,,,0.00,1092.000000,,2013-05-02 19:52:00,
2013-05-02 14:02:00,59.0,21.0,-100.00,North,352,5.0,14.0,23,0.00,,,0.00,1092.000000,,2013-05-02 20:02:00,
2013-05-02 14:11:00,59.0,21.0,-100.00,North,352,5.0,14.0,23,0.00,,,0.00,1092.000000,,2013-05-02 20:11:00,
2013-05-02 14:22:00,59.0,21.0,-100.00,North,352,5.0,14.0,23,0.00,,,0.00,1092.000000,,2013-05-02 20:22:00,
2013-05-02 14:52:00,63.0,19.0,-100.00,WSW,246,5.0,11.0,18,0.00,,,0.00,986.000000,,2013-05-02 20:52:00,
2013-05-02 15:01:00,63.0,19.0,-100.00,WSW,246,5.0,11.0,18,0.00,,,0.00,986.000000,,2013-05-02 21:01:00,
2013-05-02 15:11:00,63.0,19.0,-100.00,WSW,246,5.0,11.0,18,0.00,,,0.00,986.000000,,2013-05-02 21:11:00,
2013-05-02 15:21:00,63.0,19.0,-100.00,WSW,246,5.0,11.0,18,0.00,,,0.00,986.000000,,2013-05-02 21:21:00,
2013-05-02 15:53:00,62.0,15.0,-100.00,NW,316,5.0,12.0,16,0.00,,,0.00,972.000000,,2013-05-02 21:53:00,
2013-05-02 16:03:00,62.0,15.0,-100.00,NW,316,5.0,12.0,16,0.00,,,0.00,972.000000,,2013-05-02 22:03:00,
2013-05-02 16:12:00,62.0,15.0,-100.00,NW,316,5.0,12.0,16,0.00,,,0.00,972.000000,,2013-05-02 22:12:00,
2013-05-02 16:22:00,62.0,15.0,-100.00,NW,316,5.0,12.0,16,0.00,,,0.00,972.000000,,2013-05-02 22:22:00,
2013-05-02 16:53:00,63.0,16.0,-100.00,SSE,160,4.0,17.0,16,0.00,,,0.00,827.000000,,2013-05-02 22:53:00,
2013-05-02 17:02:00,63.0,16.0,-100.00,SSE,160,4.0,17.0,16,0.00,,,0.00,827.000000,,2013-05-02 23:02:00,
2013-05-02 17:11:00,63.0,16.0,-100.00,SSE,160,4.0,17.0,16,0.00,,,0.00,827.000000,,2013-05-02 23:11:00,
2013-05-02 17:22:00,63.0,16.0,-100.00,SSE,160,4.0,17.0,16,0.00,,,0.00,827.000000,,2013-05-02 23:22:00,
2013-05-02 17:52:00,63.0,16.0,-100.00,WNW,300,2.0,13.0,16,0.00,,,0.00,638.000000,,2013-05-02 23:52:00,
2013-05-02 18:01:00,63.0,16.0,-100.00,WNW,300,2.0,13.0,16,0.00,,,0.00,638.000000,,2013-05-03 00:01:00,
2013-05-02 18:11:00,63.0,16.0,-100.00,WNW,300,2.0,13.0,16,0.00,,,0.00,638.000000,,2013-05-03 00:11:00,
2013-05-02 18:21:00,63.0,16.0,-100.00,WNW,300,2.0,13.0,16,0.00,,,0.00,638.000000,,2013-05-03 00:21:00,
2013-05-02 18:52:00,60.0,15.0,-100.00,NNW,347,3.0,12.0,17,0.00,,,0.00,424.000000,,2013-05-03 00:52:00,
2013-05-02 19:01:00,60.0,15.0,-100.00,NNW,347,3.0,12.0,17,0.00,,,0.00,424.000000,,2013-05-03 01:01:00,
2013-05-02 19:11:00,60.0,15.0,-100.00,NNW,347,3.0,12.0,17,0.00,,,0.00,424.000000,,2013-05-03 01:11:00,
2013-05-02 19:21:00,60.0,15.0,-100.00,NNW,347,3.0,12.0,17,0.00,,,0.00,424.000000,,2013-05-03 01:21:00,
2013-05-02 19:52:00,54.0,15.0,-100.00,ENE,57,1.0,6.0,21,0.00,,,0.00,142.000000,,2013-05-03 01:52:00,
2013-05-02 20:01:00,54.0,15.0,-100.00,ENE,57,1.0,6.0,21,0.00,,,0.00,142.000000,,2013-05-03 02:01:00,
2013-05-02 20:11:00,54.0,15.0,-100.00,ENE,57,1.0,6.0,21,0.00,,,0.00,142.000000,,2013-05-03 02:11:00,
2013-05-02 20:21:00,54.0,15.0,-100.00,ENE,57,1.0,6.0,21,0.00,,,0.00,142.000000,,2013-05-03 02:21:00,
2013-05-02 20:52:00,46.0,18.0,-100.00,SE,139,2.0,4.0,32,0.00,,,0.00,16.000000,,2013-05-03 02:52:00,
2013-05-02 21:01:00,46.0,18.0,-100.00,SE,139,2.0,4.0,32,0.00,,,0.00,16.000000,,2013-05-03 03:01:00,
2013-05-02 21:11:00,46.0,18.0,-100.00,SE,139,2.0,4.0,32,0.00,,,0.00,16.000000,,2013-05-03 03:11:00,
2013-05-02 21:21:00,46.0,18.0,-100.00,SE,139,2.0,4.0,32,0.00,,,0.00,16.000000,,2013-05-03 03:21:00,
2013-05-02 21:53:00,43.0,17.0,-100.00,SSE,166,3.0,5.0,35,0.00,,,0.00,0.000000,,2013-05-03 03:53:00,
2013-05-02 22:03:00,43.0,17.0,-100.00,SSE,166,3.0,5.0,35,0.00,,,0.00,0.000000,,2013-05-03 04:03:00,
2013-05-02 22:12:00,43.0,17.0,-100.00,SSE,166,3.0,5.0,35,0.00,,,0.00,0.000000,,2013-05-03 04:12:00,
2013-05-02 22:22:00,43.0,17.0,-100.00,SSE,166,3.0,5.0,35,0.00,,,0.00,0.000000,,2013-05-03 04:22:00,
2013-05-02 22:53:00,40.0,16.0,-100.00,South,179,2.0,5.0,38,0.00,,,0.00,0.000000,,2013-05-03 04:53:00,
2013-05-02 23:02:00,40.0,16.0,-100.00,South,179,2.0,5.0,38,0.00,,,0.00,0.000000,,2013-05-03 05:02:00,
2013-05-02 23:12:00,40.0,16.0,-100.00,South,179,2.0,5.0,38,0.00,,,0.00,0.000000,,2013-05-03 05:12:00,
2013-05-02 23:21:00,40.0,16.0,-100.00,South,179,2.0,5.0,38,0.00,,,0.00,0.000000,,2013-05-03 05:21:00,
2013-05-02 23:42:00,40.0,18.0,-100.00,South,178,4.0,6.0,41,0.00,,,0.00,0.000000,,2013-05-03 05:42:00,
2013-05-02 23:52:00,40.0,18.0,-100.00,South,178,4.0,6.0,41,0.00,,,0.00,0.000000,,2013-05-03 05:52:00,